QPF
0.00 0.00 0.00 0.00 0.00 0.00 0.00 0.01 0.05 0.02 0.00 0.00 0.00 0.01 0.01 0.00 0.00 0.00 0.00 0.00 0.01 0.02 0.01 0.00 0.01 0.01 0.00 0.00 0.01 0.01 0.02 0.02 0.03 0.04 0.04 0.04 0.03 0.03 0.03 0.03 0.03 0.03 0.04 0.06
0.00 0.00 0.00 0.00 0.00 0.00 0.00 0.00 0.01 0.02 0.00 0.00 0.00 0.01 0.02 0.00 0.00 0.00 0.00 0.00 0.00 0.00 0.00 0.00 0.01 0.02 0.01 0.00 0.00 0.01 0.01 0.02 0.02 0.03 0.04 0.04 0.04 0.04 0.03 0.03 0.04 0.04 0.04 0.06
0.00 0.00 0.00 0.00 0.00 0.00 0.00 0.00 0.00 0.01 0.00 0.00 0.01 0.01 0.01 0.00 0.00 0.00 0.00 0.00 0.00 0.00 0.00 0.00 0.00 0.00 0.01 0.01 0.00 0.01 0.02 0.02 0.02 0.03 0.04 0.04 0.04 0.04 0.04 0.04 0.05 0.05 0.05 0.06
0.00 0.00 0.00 0.00 0.00 0.00 0.00 0.00 0.00 0.00 0.00 0.00 0.02 0.03 0.01 0.00 0.01 0.01 0.01 0.00 0.00 0.00 0.00 0.00 0.00 0.00 0.00 0.01 0.01 0.01 0.02 0.03 0.02 0.03 0.04 0.04 0.04 0.03 0.04 0.04 0.04 0.05 0.05 0.06
0.00 0.00 0.00 0.00 0.00 0.00 0.00 0.00 0.01 0.01 0.00 0.00 0.00 0.01 0.02 0.01 0.00 0.01 0.01 0.01 0.00 0.00 0.00 0.00 0.00 0.00 0.00 0.01 0.01 0.01 0.01 0.02 0.02 0.03 0.04 0.04 0.03 0.03 0.04 0.04 0.04 0.05 0.04 0.04
0.00 0.00 0.00 0.00 0.00 0.00 0.00 0.00 0.00 0.00 0.01 0.01 0.01 0.02 0.03 0.03 0.02 0.01 0.01 0.01 0.00 0.00 0.00 0.00 0.00 0.00 0.01 0.01 0.02 0.02 0.02 0.02 0.02 0.02 0.03 0.03 0.03 0.03 0.04 0.04 0.04 0.04 0.06 0.05
0.00 0.00 0.00 0.00 0.00 0.00 0.01 0.02 0.03 0.02 0.02 0.01 0.01 0.03 0.05 0.03 0.04 0.03 0.02 0.01 0.00 0.00 0.00 0.00 0.01 0.02 0.02 0.02 0.02 0.04 0.03 0.03 0.03 0.03 0.03 0.02 0.02 0.02 0.03 0.03 0.03 0.04 0.05 0.06
0.00 0.00 0.00 0.00 0.00 0.01 0.03 0.03 0.04 0.04 0.03 0.03 0.02 0.03 0.04 0.03 0.02 0.02 0.02 0.01 0.00 0.00 0.00 0.00 0.01 0.01 0.01 0.01 0.01 0.02 0.03 0.03 0.03 0.03 0.04 0.03 0.02 0.02 0.02 0.02 0.02 0.04 0.05 0.05
0.00 0.00 0.00 0.00 0.00 0.00 0.01 0.03 0.03 0.02 0.02 0.02 0.03 0.03 0.03 0.02 0.01 0.02 0.02 0.01 0.00 0.00 0.00 0.00 0.01 0.02 0.01 0.00 0.01 0.02 0.03 0.04 0.04 0.04 0.05 0.03 0.01 0.01 0.02 0.02 0.02 0.03 0.04 0.04
0.00 0.00 0.00 0.00 0.00 0.00 0.01 0.02 0.02 0.02 0.03 0.03 0.03 0.05 0.06 0.04 0.03 0.05 0.05 0.03 0.01 0.00 0.00 0.00 0.01 0.03 0.01 0.01 0.01 0.01 0.02 0.03 0.04 0.04 0.03 0.02 0.02 0.02 0.02 0.02 0.02 0.02 0.03 0.04
0.00 0.00 0.01 0.00 0.01 0.01 0.01 0.02 0.02 0.02 0.03 0.03 0.05 0.07 0.06 0.06 0.04 0.03 0.02 0.02 0.02 0.00 0.00 0.00 0.00 0.01 0.01 0.01 0.01 0.03 0.04 0.05 0.03 0.04 0.03 0.02 0.03 0.03 0.04 0.03 0.03 0.03 0.04 0.05
0.00 0.00 0.01 0.01 0.00 0.00 0.01 0.01 0.02 0.02 0.03 0.03 0.04 0.07 0.04 0.04 0.03 0.02 0.02 0.01 0.01 0.01 0.00 0.01 0.01 0.01 0.02 0.02 0.02 0.03 0.04 0.03 0.04 0.04 0.03 0.02 0.03 0.04 0.04 0.04 0.04 0.05 0.05 0.05
0.00 0.00 0.01 0.02 0.02 0.01 0.01 0.01 0.01 0.01 0.03 0.03 0.05 0.07 0.04 0.03 0.03 0.02 0.02 0.01 0.02 0.02 0.02 0.02 0.02 0.02 0.02 0.02 0.03 0.03 0.04 0.03 0.04 0.04 0.05 0.04 0.03 0.04 0.05 0.05 0.05 0.05 0.04 0.04
0.00 0.00 0.01 0.04 0.04 0.02 0.01 0.01 0.00 0.01 0.04 0.04 0.03 0.03 0.04 0.04 0.04 0.04 0.03 0.03 0.02 0.02 0.04 0.06 0.06 0.05 0.04 0.03 0.03 0.04 0.05 0.04 0.04 0.06 0.06 0.05 0.04 0.03 0.05 0.05 0.04 0.04 0.04 0.03
0.01 0.01 0.01 0.01 0.01 0.00 0.01 0.01 0.01 0.01 0.02 0.03 0.03 0.03 0.04 0.04 0.05 0.04 0.02 0.01 0.01 0.04 0.06 0.08 0.08 0.06 0.05 0.03 0.03 0.04 0.04 0.05 0.05 0.05 0.05 0.04 0.03 0.03 0.04 0.04 0.03 0.04 0.05 0.04
0.01 0.01 0.01 0.01 0.01 0.01 0.00 0.01 0.00 0.00 0.00 0.01 0.02 0.04 0.05 0.03 0.03 0.02 0.01 0.01 0.02 0.03 0.04 0.06 0.07 0.07 0.06 0.04 0.05 0.03 0.03 0.04 0.05 0.05 0.05 0.04 0.03 0.03 0.04 0.04 0.03 0.04 0.05 0.06
0.01 0.02 0.02 0.01 0.01 0.01 0.01 0.01 0.00 0.00 0.00 0.01 0.02 0.04 0.03 0.03 0.02 0.04 0.03 0.02 0.04 0.03 0.02 0.03 0.05 0.07 0.08 0.06 0.05 0.03 0.03 0.02 0.04 0.04 0.04 0.04 0.03 0.02 0.03 0.03 0.03 0.03 0.04 0.06
0.01 0.02 0.03 0.03 0.03 0.03 0.02 0.01 0.00 0.00 0.01 0.01 0.02 0.02 0.03 0.03 0.02 0.03 0.03 0.04 0.04 0.03 0.02 0.03 0.05 0.05 0.07 0.06 0.05 0.04 0.02 0.02 0.03 0.04 0.05 0.04 0.04 0.03 0.03 0.04 0.03 0.03 0.03 0.04
0.00 0.01 0.03 0.04 0.04 0.04 0.02 0.01 0.01 0.01 0.02 0.02 0.03 0.03 0.03 0.03 0.03 0.03 0.03 0.03 0.02 0.02 0.03 0.05 0.07 0.05 0.07 0.06 0.04 0.04 0.03 0.04 0.06 0.05 0.06 0.05 0.04 0.04 0.03 0.03 0.03 0.03 0.03 0.03
0.00 0.01 0.03 0.03 0.04 0.04 0.03 0.01 0.01 0.02 0.03 0.03 0.02 0.02 0.02 0.03 0.04 0.04 0.03 0.03 0.03 0.03 0.05 0.07 0.10 0.09 0.07 0.07 0.06 0.06 0.04 0.05 0.07 0.07 0.04 0.03 0.04 0.04 0.03 0.03 0.03 0.03 0.03 0.03
0.02 0.02 0.03 0.04 0.06 0.05 0.03 0.01 0.01 0.03 0.04 0.03 0.03 0.03 0.03 0.04 0.05 0.04 0.02 0.02 0.03 0.03 0.04 0.06 0.08 0.07 0.08 0.08 0.07 0.07 0.04 0.04 0.05 0.05 0.04 0.04 0.04 0.03 0.02 0.02 0.02 0.02 0.02 0.03
0.03 0.04 0.04 0.04 0.05 0.05 0.02 0.01 0.02 0.03 0.03 0.03 0.03 0.03 0.03 0.04 0.04 0.02 0.02 0.02 0.02 0.03 0.03 0.04 0.04 0.03 0.03 0.04 0.05 0.05 0.04 0.02 0.03 0.03 0.03 0.04 0.05 0.04 0.02 0.02 0.02 0.02 0.03 0.03
0.04 0.05 0.05 0.05 0.05 0.04 0.03 0.02 0.02 0.02 0.02 0.02 0.02 0.02 0.02 0.02 0.02 0.02 0.02 0.02 0.03 0.02 0.02 0.03 0.03 0.02 0.01 0.02 0.03 0.03 0.04 0.03 0.03 0.03 0.03 0.04 0.04 0.04 0.03 0.02 0.02 0.02 0.03 0.03
0.03 0.03 0.03 0.03 0.02 0.02 0.01 0.01 0.01 0.01 0.01 0.02 0.02 0.01 0.01 0.01 0.01 0.02 0.02 0.02 0.02 0.02 0.02 0.02 0.03 0.03 0.01 0.01 0.02 0.03 0.04 0.03 0.02 0.03 0.04 0.04 0.04 0.04 0.03 0.03 0.02 0.02 0.03 0.03
0.04 0.03 0.03 0.03 0.02 0.02 0.01 0.01 0.01 0.01 0.01 0.02 0.01 0.01 0.01 0.00 0.00 0.01 0.01 0.01 0.01 0.02 0.02 0.02 0.03 0.02 0.01 0.02 0.02 0.03 0.03 0.04 0.04 0.04 0.03 0.03 0.04 0.04 0.03 0.03 0.02 0.01 0.02 0.02
0.04 0.05 0.05 0.05 0.03 0.02 0.03 0.02 0.02 0.01 0.01 0.01 0.01 0.01 0.01 0.01 0.00 0.00 0.01 0.01 0.01 0.01 0.02 0.03 0.02 0.02 0.02 0.02 0.02 0.03 0.03 0.03 0.02 0.03 0.02 0.02 0.02 0.02 0.02 0.03 0.03 0.02 0.01 0.01
MSLP
1006.47 1006.85 1007.00 1006.92 1006.68 1006.34 1005.99 1005.68 1005.42 1005.22 1005.04 1004.85 1004.62 1004.33 1003.99 1003.64 1003.33 1003.10 1003.02 1003.09 1003.33 1003.72 1004.21 1004.77 1005.35 1005.92 1006.47 1006.99 1007.48 1007.93 1008.35 1008.73 1009.05 1009.30 1009.48 1009.60 1009.69 1009.79 1009.94 1010.19 1010.56 1011.08 1011.71 1012.42
1006.58 1006.79 1006.75 1006.53 1006.19 1005.82 1005.49 1005.24 1005.08 1004.98 1004.89 1004.77 1004.57 1004.28 1003.91 1003.51 1003.14 1002.86 1002.74 1002.80 1003.04 1003.45 1003.98 1004.59 1005.22 1005.85 1006.43 1006.98 1007.48 1007.94 1008.35 1008.71 1009.01 1009.22 1009.36 1009.44 1009.47 1009.51 1009.61 1009.81 1010.16 1010.66 1011.30 1012.05
1006.43 1006.44 1006.25 1005.92 1005.54 1005.19 1004.94 1004.81 1004.79 1004.82 1004.84 1004.79 1004.61 1004.30 1003.88 1003.40 1002.94 1002.59 1002.41 1002.43 1002.68 1003.11 1003.69 1004.36 1005.06 1005.75 1006.39 1006.98 1007.51 1007.98 1008.39 1008.74 1009.02 1009.22 1009.33 1009.38 1009.38 1009.39 1009.45 1009.62 1009.94 1010.42 1011.05 1011.79
1005.96 1005.82 1005.52 1005.15 1004.80 1004.55 1004.45 1004.49 1004.64 1004.83 1004.97 1004.97 1004.80 1004.44 1003.92 1003.33 1002.75 1002.28 1002.01 1001.98 1002.20 1002.66 1003.29 1004.03 1004.82 1005.59 1006.31 1006.96 1007.53 1008.03 1008.46 1008.81 1009.09 1009.28 1009.39 1009.44 1009.44 1009.44 1009.49 1009.65 1009.94 1010.39 1010.98 1011.69
1005.24 1004.99 1004.65 1004.31 1004.07 1003.98 1004.08 1004.34 1004.70 1005.06 1005.30 1005.35 1005.15 1004.70 1004.05 1003.29 1002.54 1001.92 1001.52 1001.41 1001.61 1002.07 1002.76 1003.59 1004.47 1005.35 1006.17 1006.90 1007.54 1008.08 1008.53 1008.90 1009.19 1009.40 1009.53 1009.60 1009.63 1009.66 1009.73 1009.88 1010.16 1010.57 1011.12 1011.77
1004.34 1004.04 1003.72 1003.48 1003.40 1003.53 1003.87 1004.37 1004.94 1005.45 1005.78 1005.84 1005.58 1005.01 1004.20 1003.25 1002.30 1001.50 1000.96 1000.75 1000.90 1001.38 1002.12 1003.04 1004.04 1005.03 1005.96 1006.79 1007.51 1008.11 1008.60 1008.99 1009.31 1009.54 1009.71 1009.82 1009.90 1009.98 1010.09 1010.28 1010.55 1010.94 1011.44 1012.01
1003.39 1003.09 1002.84 1002.73 1002.84 1003.19 1003.77 1004.50 1005.25 1005.88 1006.28 1006.33 1005.99 1005.29 1004.30 1003.15 1002.00 1001.03 1000.34 1000.04 1000.14 1000.62 1001.42 1002.44 1003.55 1004.67 1005.72 1006.66 1007.45 1008.11 1008.64 1009.06 1009.40 1009.67 1009.88 1010.05 1010.20 1010.35 1010.52 1010.75 1011.05 1011.43 1011.88 1012.39
1002.51 1002.24 1002.08 1002.11 1002.39 1002.94 1003.71 1004.61 1005.49 1006.21 1006.63 1006.65 1006.23 1005.40 1004.26 1002.94 1001.64 1000.52 999.72 999.34 999.41 999.91 1000.77 1001.87 1003.09 1004.33 1005.49 1006.52 1007.39 1008.10 1008.66 1009.11 1009.46 1009.76 1010.01 1010.24 1010.46 1010.69 1010.94 1011.23 1011.56 1011.95 1012.38 1012.84
1001.80 1001.56 1001.47 1001.61 1002.02 1002.70 1003.59 1004.58 1005.53 1006.28 1006.69 1006.67 1006.18 1005.27 1004.02 1002.61 1001.21 1000.01 999.16 998.75 998.82 999.34 1000.25 1001.43 1002.74 1004.07 1005.32 1006.42 1007.35 1008.09 1008.67 1009.13 1009.49 1009.80 1010.09 1010.36 1010.65 1010.95 1011.28 1011.64 1012.03 1012.45 1012.89 1013.32
1001.31 1001.10 1001.05 1001.23 1001.69 1002.41 1003.32 1004.32 1005.25 1005.98 1006.35 1006.30 1005.78 1004.84 1003.59 1002.17 1000.77 999.59 998.75 998.36 998.47 999.03 999.99 1001.22 1002.59 1003.98 1005.28 1006.42 1007.37 1008.13 1008.71 1009.16 1009.52 1009.83 1010.13 1010.43 1010.77 1011.13 1011.53 1011.96 1012.42 1012.88 1013.34 1013.78
1001.07 1000.84 1000.78 1000.95 1001.37 1002.03 1002.87 1003.78 1004.64 1005.29 1005.62 1005.54 1005.05 1004.17 1003.00 1001.69 1000.41 999.34 998.61 998.31 998.47 999.09 1000.08 1001.33 1002.71 1004.11 1005.42 1006.56 1007.51 1008.26 1008.82 1009.25 1009.59 1009.89 1010.18 1010.50 1010.86 1011.27 1011.72 1012.21 1012.72 1013.24 1013.74 1014.21
1001.03 1000.77 1000.66 1000.75 1001.07 1001.60 1002.29 1003.05 1003.77 1004.32 1004.60 1004.54 1004.12 1003.37 1002.39 1001.29 1000.23 999.37 998.81 998.64 998.90 999.56 1000.56 1001.80 1003.15 1004.51 1005.78 1006.89 1007.80 1008.52 1009.05 1009.45 1009.77 1010.04 1010.32 1010.64 1011.00 1011.42 1011.90 1012.43 1012.98 1013.53 1014.07 1014.57
1001.15 1000.85 1000.68 1000.66 1000.84 1001.20 1001.70 1002.27 1002.82 1003.26 1003.50 1003.48 1003.18 1002.63 1001.90 1001.10 1000.34 999.74 999.42 999.42 999.78 1000.48 1001.47 1002.65 1003.92 1005.19 1006.37 1007.41 1008.27 1008.94 1009.44 1009.81 1010.10 1010.36 1010.62 1010.91 1011.26 1011.68 1012.15 1012.68 1013.24 1013.81 1014.37 1014.90
1001.38 1001.07 1000.84 1000.73 1000.77 1000.95 1001.25 1001.62 1002.01 1002.33 1002.53 1002.57 1002.42 1002.11 1001.69 1001.22 1000.80 1000.51 1000.44 1000.63 1001.09 1001.81 1002.75 1003.84 1005.00 1006.14 1007.20 1008.14 1008.92 1009.53 1010.00 1010.35 1010.63 1010.87 1011.11 1011.37 1011.69 1012.08 1012.52 1013.02 1013.56 1014.12 1014.68 1015.21
1001.73 1001.44 1001.20 1001.03 1000.95 1000.98 1001.10 1001.29 1001.52 1001.74 1001.92 1002.02 1002.03 1001.96 1001.84 1001.71 1001.64 1001.66 1001.84 1002.20 1002.75 1003.47 1004.35 1005.32 1006.32 1007.31 1008.23 1009.05 1009.74 1010.31 1010.74 1011.08 1011.35 1011.58 1011.80 1012.04 1012.32 1012.65 1013.04 1013.49 1013.98 1014.49 1015.01 1015.51
1002.19 1001.98 1001.78 1001.61 1001.47 1001.40 1001.38 1001.42 1001.51 1001.64 1001.78 1001.93 1002.08 1002.23 1002.39 1002.57 1002.81 1003.12 1003.52 1004.03 1004.65 1005.36 1006.15 1006.98 1007.83 1008.65 1009.42 1010.11 1010.71 1011.22 1011.63 1011.96 1012.23 1012.46 1012.67 1012.89 1013.12 1013.40 1013.72 1014.09 1014.50 1014.94 1015.40 1015.85
1002.81 1002.73 1002.63 1002.51 1002.38 1002.25 1002.13 1002.05 1002.02 1002.06 1002.16 1002.33 1002.58 1002.90 1003.28 1003.72 1004.21 1004.76 1005.35 1005.98 1006.64 1007.33 1008.02 1008.72 1009.41 1010.07 1010.69 1011.26 1011.77 1012.23 1012.62 1012.94 1013.22 1013.45 1013.66 1013.85 1014.05 1014.26 1014.51 1014.80 1015.13 1015.49 1015.87 1016.25
1003.63 1003.71 1003.75 1003.73 1003.64 1003.49 1003.31 1003.14 1003.00 1002.94 1002.99 1003.15 1003.44 1003.87 1004.40 1005.03 1005.71 1006.43 1007.16 1007.88 1008.57 1009.23 1009.84 1010.42 1010.96 1011.48 1011.96 1012.43 1012.86 1013.26 1013.63 1013.95 1014.23 1014.47 1014.67 1014.85 1015.01 1015.19 1015.38 1015.59 1015.85 1016.13 1016.44 1016.75
1004.67 1004.93 1005.12 1005.20 1005.16 1005.01 1004.78 1004.52 1004.29 1004.13 1004.09 1004.22 1004.51 1004.98 1005.60 1006.34 1007.15 1007.99 1008.82 1009.60 1010.31 1010.94 1011.49 1011.97 1012.40 1012.80 1013.17 1013.54 1013.90 1014.26 1014.60 1014.91 1015.19 1015.43 1015.64 1015.80 1015.95 1016.09 1016.24 1016.41 1016.61 1016.85 1017.10 1017.35
1005.93 1006.34 1006.64 1006.80 1006.79 1006.63 1006.36 1006.02 1005.68 1005.42 1005.29 1005.35 1005.61 1006.08 1006.73 1007.53 1008.41 1009.33 1010.21 1011.04 1011.76 1012.37 1012.88 1013.30 1013.65 1013.96 1014.25 1014.55 1014.85 1015.16 1015.47 1015.77 1016.05 1016.29 1016.49 1016.65 1016.80 1016.93 1017.06 1017.22 1017.40 1017.61 1017.84 1018.07
1007.37 1007.86 1008.22 1008.40 1008.38 1008.19 1007.84 1007.42 1006.99 1006.63 1006.42 1006.41 1006.63 1007.07 1007.72 1008.53 1009.45 1010.39 1011.31 1012.15 1012.89 1013.49 1013.98 1014.36 1014.66 1014.92 1015.16 1015.40 1015.66 1015.94 1016.22 1016.50 1016.76 1016.99 1017.19 1017.36 1017.51 1017.65 1017.80 1017.97 1018.16 1018.38 1018.62 1018.86
1008.90 1009.40 1009.73 1009.87 1009.79 1009.52 1009.09 1008.59 1008.08 1007.65 1007.38 1007.31 1007.49 1007.91 1008.54 1009.35 1010.26 1011.21 1012.14 1012.98 1013.72 1014.32 1014.80 1015.16 1015.44 1015.68 1015.89 1016.10 1016.33 1016.57 1016.82 1017.08 1017.32 1017.55 1017.75 1017.92 1018.09 1018.25 1018.43 1018.63 1018.86 1019.12 1019.40 1019.67
1010.45 1010.86 1011.08 1011.10 1010.91 1010.54 1010.03 1009.45 1008.89 1008.43 1008.13 1008.06 1008.22 1008.63 1009.25 1010.04 1010.93 1011.87 1012.77 1013.60 1014.33 1014.92 1015.39 1015.75 1016.02 1016.25 1016.45 1016.64 1016.85 1017.07 1017.30 1017.53 1017.76 1017.96 1018.16 1018.34 1018.52 1018.72 1018.93 1019.18 1019.46 1019.78 1020.11 1020.43
1011.91 1012.16 1012.21 1012.06 1011.73 1011.24 1010.65 1010.03 1009.46 1009.02 1008.75 1008.70 1008.90 1009.31 1009.94 1010.71 1011.58 1012.47 1013.33 1014.12 1014.81 1015.38 1015.83 1016.18 1016.46 1016.68 1016.88 1017.07 1017.26 1017.46 1017.67 1017.88 1018.08 1018.28 1018.46 1018.65 1018.84 1019.06 1019.31 1019.61 1019.94 1020.30 1020.68 1021.06
1013.22 1013.26 1013.10 1012.76 1012.27 1011.67 1011.03 1010.42 1009.89 1009.51 1009.33 1009.36 1009.62 1010.08 1010.71 1011.47 1012.29 1013.13 1013.93 1014.65 1015.28 1015.80 1016.22 1016.55 1016.81 1017.03 1017.22 1017.41 1017.60 1017.79 1017.98 1018.16 1018.34 1018.52 1018.69 1018.87 1019.07 1019.30 1019.57 1019.89 1020.26 1020.66 1021.08 1021.48
1014.34 1014.15 1013.78 1013.25 1012.63 1011.96 1011.31 1010.74 1010.31 1010.05 1009.99 1010.14 1010.49 1011.01 1011.67 1012.40 1013.17 1013.93 1014.64 1015.27 1015.81 1016.25 1016.61 1016.90 1017.14 1017.35 1017.54 1017.72 1017.89 1018.07 1018.24 1018.40 1018.55 1018.70 1018.86 1019.02 1019.21 1019.44 1019.72 1020.04 1020.42 1020.83 1021.26 1021.68
Thickness
5784 5775 5773 5783 5795 5797 5796 5791 5788 5800 5824 5817 5808 5808 5816 5827 5825 5822 5822 5821 5818 5815 5817 5815 5810 5807 5801 5797 5793 5790 5786 5783 5779 5775 5771 5768 5766 5766 5764 5762 5758 5756 5753 5751
5772 5770 5789 5802 5804 5798 5795 5786 5788 5801 5819 5812 5805 5806 5817 5824 5823 5824 5822 5819 5818 5816 5813 5809 5807 5802 5798 5792 5789 5787 5783 5780 5777 5774 5771 5769 5766 5764 5763 5760 5757 5753 5751 5748
5768 5785 5800 5796 5792 5785 5786 5787 5790 5793 5807 5812 5800 5793 5805 5819 5824 5823 5823 5822 5820 5816 5808 5803 5802 5799 5796 5790 5786 5785 5781 5777 5774 5772 5769 5767 5764 5761 5758 5755 5753 5751 5748 5745
5776 5793 5795 5789 5785 5784 5777 5798 5797 5792 5786 5785 5792 5773 5795 5808 5809 5812 5813 5817 5816 5816 5810 5804 5801 5797 5794 5790 5787 5783 5779 5774 5771 5769 5766 5762 5757 5754 5753 5752 5750 5748 5745 5742
5774 5787 5785 5781 5787 5789 5787 5801 5795 5788 5783 5777 5786 5777 5786 5803 5797 5802 5808 5811 5814 5814 5811 5806 5802 5797 5795 5791 5786 5781 5775 5771 5769 5767 5763 5759 5755 5753 5752 5750 5747 5745 5743 5740
5782 5796 5794 5791 5797 5798 5795 5790 5786 5783 5778 5758 5776 5772 5773 5790 5792 5797 5802 5806 5809 5810 5807 5804 5801 5797 5792 5789 5784 5777 5770 5767 5765 5763 5760 5756 5752 5749 5747 5745 5742 5741 5739 5736
5767 5781 5794 5797 5784 5787 5782 5763 5745 5745 5748 5755 5783 5774 5771 5793 5802 5800 5800 5803 5805 5805 5802 5798 5794 5790 5786 5781 5777 5772 5766 5762 5761 5758 5755 5753 5750 5747 5743 5741 5738 5736 5734 5732
5752 5757 5781 5788 5781 5772 5772 5765 5740 5729 5738 5756 5775 5767 5782 5802 5807 5805 5803 5802 5800 5798 5796 5792 5789 5786 5781 5776 5773 5769 5764 5759 5757 5754 5751 5749 5747 5745 5741 5738 5736 5733 5730 5728
5755 5759 5786 5792 5793 5783 5766 5763 5772 5758 5753 5747 5756 5768 5780 5796 5795 5795 5794 5792 5791 5791 5789 5786 5782 5779 5776 5773 5769 5765 5760 5756 5753 5750 5747 5745 5743 5740 5737 5735 5732 5730 5727 5725
5763 5753 5773 5786 5786 5784 5782 5775 5764 5751 5733 5730 5748 5757 5759 5768 5773 5779 5781 5780 5781 5783 5781 5779 5775 5771 5770 5769 5765 5761 5756 5752 5750 5747 5744 5741 5739 5737 5734 5731 5728 5725 5723 5720
5762 5747 5756 5767 5763 5761 5766 5763 5760 5756 5750 5732 5729 5745 5774 5771 5773 5773 5776 5778 5777 5777 5774 5771 5769 5767 5765 5762 5759 5754 5751 5748 5745 5742 5739 5737 5734 5732 5729 5726 5724 5721 5718 5716
5760 5748 5740 5754 5774 5779 5771 5765 5759 5739 5736 5743 5738 5742 5779 5777 5776 5774 5774 5775 5775 5772 5769 5765 5762 5759 5757 5753 5750 5747 5745 5743 5740 5738 5735 5732 5729 5727 5724 5721 5719 5717 5714 5711
5750 5737 5721 5727 5744 5757 5756 5762 5762 5757 5746 5737 5732 5737 5770 5771 5768 5770 5768 5767 5765 5763 5759 5756 5753 5749 5747 5745 5743 5741 5739 5737 5736 5733 5729 5726 5723 5721 5719 5717 5715 5712 5709 5706
5745 5730 5719 5710 5723 5735 5738 5750 5756 5749 5735 5732 5738 5739 5752 5754 5754 5757 5756 5757 5756 5754 5750 5747 5744 5741 5739 5738 5736 5735 5733 5732 5730 5727 5723 5720 5718 5716 5714 5712 5710 5708 5705 5702
5735 5720 5722 5727 5737 5738 5737 5742 5746 5743 5742 5734 5738 5740 5743 5747 5747 5749 5751 5751 5749 5744 5741 5738 5735 5733 5730 5729 5728 5727 5726 5725 5723 5720 5717 5715 5713 5712 5710 5707 5705 5703 5700 5699
5723 5712 5715 5717 5729 5732 5733 5738 5741 5739 5741 5738 5739 5734 5746 5748 5745 5743 5743 5741 5737 5734 5732 5730 5728 5726 5723 5721 5720 5719 5718 5718 5716 5714 5712 5710 5708 5706 5704 5701 5699 5696 5694 5692
5712 5704 5699 5703 5718 5719 5712 5728 5733 5732 5737 5735 5727 5730 5739 5736 5734 5733 5733 5732 5728 5726 5724 5722 5720 5718 5716 5714 5713 5711 5711 5711 5709 5708 5707 5705 5703 5700 5698 5697 5693 5690 5688 5686
5701 5695 5693 5694 5698 5686 5713 5735 5735 5728 5728 5733 5730 5731 5731 5727 5728 5729 5728 5725 5721 5719 5716 5714 5712 5711 5710 5710 5707 5705 5704 5704 5702 5701 5701 5699 5697 5695 5693 5690 5687 5684 5682 5679
5703 5691 5684 5684 5683 5691 5707 5720 5723 5715 5711 5723 5722 5722 5722 5723 5720 5716 5719 5717 5714 5712 5709 5708 5706 5705 5704 5702 5700 5698 5696 5696 5695 5694 5694 5694 5692 5689 5686 5683 5681 5678 5676 5673
5699 5691 5680 5677 5671 5672 5694 5714 5723 5712 5695 5711 5713 5709 5708 5707 5695 5696 5706 5707 5706 5704 5702 5700 5699 5697 5695 5694 5693 5689 5688 5687 5686 5687 5687 5687 5685 5682 5679 5677 5675 5673 5671 5668
5679 5677 5673 5669 5666 5678 5697 5709 5709 5683 5681 5700 5703 5701 5699 5694 5690 5694 5699 5699 5697 5695 5694 5693 5691 5689 5687 5686 5684 5681 5680 5680 5680 5681 5680 5679 5678 5676 5673 5671 5669 5667 5665 5663
5672 5668 5668 5667 5660 5666 5694 5696 5685 5680 5690 5693 5693 5693 5690 5688 5689 5689 5687 5687 5687 5685 5685 5685 5682 5680 5680 5679 5676 5674 5673 5674 5674 5673 5672 5671 5670 5669 5668 5665 5662 5661 5658 5656
5672 5672 5670 5666 5664 5678 5685 5683 5684 5685 5682 5683 5684 5686 5684 5680 5679 5678 5677 5676 5676 5676 5676 5676 5673 5671 5671 5671 5669 5666 5667 5667 5667 5665 5664 5663 5663 5662 5661 5658 5656 5655 5653 5651
5666 5672 5668 5664 5665 5671 5673 5675 5677 5678 5676 5678 5679 5678 5676 5673 5672 5669 5668 5667 5667 5666 5666 5666 5664 5662 5662 5662 5662 5661 5661 5660 5659 5657 5656 5656 5655 5655 5654 5653 5652 5650 5648 5646
5655 5659 5656 5652 5658 5663 5666 5666 5666 5668 5670 5670 5670 5670 5668 5666 5664 5661 5659 5658 5658 5657 5656 5656 5654 5653 5654 5654 5654 5654 5653 5652 5650 5649 5649 5648 5648 5647 5647 5646 5643 5643 5641 5640
5649 5647 5644 5643 5650 5651 5653 5658 5660 5658 5657 5659 5659 5658 5659 5658 5655 5653 5651 5650 5649 5648 5648 5646 5646 5646 5646 5646 5646 5646 5647 5645 5643 5642 5641 5641 5641 5641 5640 5639 5637 5635 5634 5633